DW2465 Weather Reports


Display with metric or nautical units.
time (UTC)temp
F
wind
direction
speed
MPH
gust
MPH
rain 1hr
in
rain 24hr
in
rain mn
in
humidity
%
barometer
mb
20260503054522 60 188 0.0 0.0 0.00 0.00 0.00 47 1006.2
20260503053008 59 239 0.0 0.0 0.00 0.00 0.00 47 1006.8
20260503051506 58 206 0.0 0.0 0.00 0.00 0.00 46 1006.8
20260503050003 58 192 0.0 0.0 0.00 0.00 0.00 44 1006.8
20260503044605 58 198 0.0 0.0 0.00 0.00 0.00 45 1007.0
20260503043100 58 179 0.0 0.0 0.00 0.00 0.00 45 1007.1
20260503041558 58 193 0.0 0.0 0.00 0.00 0.00 44 1007.2
20260503040056 59 169 0.0 0.0 0.00 0.00 0.00 43 1007.4
20260503034555 59 165 0.0 0.0 0.00 0.00 0.00 42 1007.6
20260503033058 60 143 0.0 0.0 0.00 0.00 0.00 41 1007.9
20260503031549 60 173 0.0 0.0 0.00 0.00 0.00 41 1008.3
20260503030045 61 170 0.0 0.0 0.00 0.00 0.00 39 1008.6
20260503024548 61 157 0.0 0.0 0.00 0.00 0.00 39 1008.8
20260503023046 61 180 0.0 0.0 0.00 0.00 0.00 39 1008.8
20260503021539 61 193 0.0 0.0 0.00 0.00 0.00 38 1009.2
20260503020034 61 238 0.0 0.0 0.00 0.00 0.00 39 1009.6
20260503014533 61 254 0.0 0.0 0.00 0.00 0.00 40 1009.6
20260503013035 61 233 0.0 0.0 0.00 0.00 0.00 39 1009.8
20260503011530 62 275 0.0 0.0 0.00 0.00 0.00 38 1010.2
20260503010032 62 250 0.0 0.0 0.00 0.00 0.00 36 1010.2
20260503004526 62 279 0.0 0.0 0.00 0.00 0.00 35 1010.1
20260503003034 63 241 0.0 0.0 0.00 0.00 0.00 35 1010.4
20260503001524 63 225 0.0 0.0 0.00 0.00 0.00 33 1010.3
20260503000023 63 249 0.0 0.0 0.00 0.00 0.00 35 1010.2
20260502234524 63 277 0.0 0.0 0.00 0.00 0.00 35 1010.4
20260502233021 63 292 0.0 0.0 0.00 0.00 0.00 35 1010.3
20260502233019 63 264 0.0 0.0 0.00 0.00 0.00 35 1010.3
20260502231525 64 221 0.0 0.0 0.00 0.00 0.00 33 1010.4
20260502230019 65 242 0.0 0.0 0.00 0.00 0.00 33 1010.3
20260502224515 65 200 0.0 0.0 0.00 0.00 0.00 33 1010.4
20260502223017 65 188 0.0 0.0 0.00 0.00 0.00 32 1010.7
20260502221513 65 228 0.0 0.0 0.00 0.00 0.00 32 1010.8
20260502220018 65 212 0.0 0.0 0.00 0.00 0.00 31 1011.0
20260502214509 65 236 0.0 0.0 0.00 0.00 0.00 30 1011.2
20260502213016 65 198 0.0 0.0 0.00 0.00 0.00 31 1011.4
20260502211505 65 250 0.0 0.0 0.00 0.00 0.00 32 1011.5
20260502210005 65 246 0.0 0.0 0.00 0.00 0.00 32 1011.9
20260502204531 65 248 0.0 0.0 0.00 0.00 0.00 31 1012.3
20260502203030 65 196 0.0 0.0 0.00 0.00 0.00 33 1012.5
20260502201534 63 206 0.0 0.0 0.00 0.00 0.00 34 1012.9
20260502200021 64 298 0.0 0.0 0.00 0.00 0.00 32 1013.1
20260502194517 63 223 0.0 0.0 0.00 0.00 0.00 33 1013.5
20260502193013 61 184 0.0 0.0 0.00 0.00 0.00 33 1013.9
20260502191542 61 279 0.0 0.0 0.00 0.00 0.00 33 1014.2
20260502190044 60 205 0.0 0.0 0.00 0.00 0.00 36 1014.6
20260502184510 60 211 0.0 0.0 0.00 0.00 0.00 33 1014.8
20260502183006 59 250 0.0 0.0 0.00 0.00 0.00 34 1015.1
20260502181601 58 227 0.0 0.0 0.00 0.00 0.00 33 1015.3
20260502163038 54 178 0.0 0.0 0.00 0.00 0.00 37 1017.1
20260502161535 54 225 0.0 0.0 0.00 0.00 0.00 36 1017.4
20260502151520 51 209 0.0 0.0 0.00 0.00 0.00 44 1018.1
20260502123048 41 250 0.0 0.0 0.00 0.00 0.00 63 1018.6
20260502121537 40 273 0.0 0.0 0.00 0.00 0.00 66 1018.6
20260502114537 39 246 0.0 0.0 0.00 0.00 0.00 68 1018.6
20260502113039 38 247 0.0 0.0 0.00 0.00 0.00 68 1018.6
20260502111534 38 252 0.0 0.0 0.00 0.00 0.00 67 1018.5
20260502110037 38 252 0.0 0.0 0.00 0.00 0.00 66 1018.3
20260502104536 38 248 0.0 0.0 0.00 0.00 0.00 65 1018.5
20260502103030 39 238 0.0 0.0 0.00 0.00 0.00 64 1018.5
20260502101529 39 236 0.0 0.0 0.00 0.00 0.00 63 1018.4
20260502091504 40 228 0.0 0.0 0.00 0.00 0.00 60 1018.2
20260502064548 43 240 0.0 0.0 0.00 0.00 0.00 52 1018.8
20260502063019 43 246 0.0 0.0 0.00 0.00 0.00 51 1018.8